SCP
0 0 0 0 0 0 0 0 0 0 0 0 0 0 0 0 0 0 0 1 1 1 1 1 1 1 1 1 1 1 1 1 0 0 0 0 0 0 0 0 0 0 0
0 0 0 0 0 0 0 0 0 0 0 0 0 0 0 0 0 0 0 1 1 1 1 1 1 1 1 1 1 1 1 1 0 0 0 0 0 0 0 0 0 0 0
0 0 0 0 0 0 0 0 0 0 0 0 0 0 0 0 0 0 0 0 0 0 1 1 1 1 1 1 1 1 1 1 0 0 0 0 0 0 0 0 0 0 0
0 0 0 0 0 0 0 0 0 0 0 0 0 0 0 0 0 0 0 0 0 0 0 1 1 1 1 1 1 1 1 1 1 0 0 0 0 0 0 0 0 0 0
0 0 0 0 0 0 0 0 0 0 0 0 0 0 0 0 0 0 0 0 0 0 0 0 1 1 1 1 1 1 1 1 1 0 0 0 0 0 0 0 0 0 0
0 0 0 0 0 0 0 0 0 0 0 0 0 0 0 0 0 0 0 0 0 0 0 0 1 1 1 1 1 1 1 1 1 1 0 0 0 0 0 0 0 0 0
0 0 0 0 0 0 0 0 0 0 0 0 0 0 0 0 0 0 0 0 0 0 0 1 1 1 1 1 1 1 1 1 1 1 1 0 0 0 0 0 0 0 0
0 0 0 0 0 0 0 0 0 0 0 0 0 0 0 0 0 0 0 0 0 0 0 0 1 1 1 1 1 1 1 1 1 1 1 0 0 0 0 0 0 0 0
0 0 0 0 0 0 0 0 0 0 0 0 0 0 0 0 0 0 0 0 0 0 0 0 1 1 1 1 1 1 1 1 1 1 1 1 0 0 0 0 0 0 0
0 0 0 0 0 0 0 0 0 0 0 0 0 0 0 0 0 0 0 0 0 0 0 0 0 1 1 0 1 1 1 1 1 1 1 1 1 0 0 0 0 0 0
0 0 0 0 0 0 0 0 0 0 0 0 0 0 0 0 0 0 0 0 0 0 0 0 0 0 0 0 1 1 1 1 1 1 1 1 1 0 0 0 0 0 0
0 0 0 0 0 0 0 0 0 0 0 0 0 0 0 0 0 0 0 0 0 0 0 0 0 0 0 0 0 0 1 1 1 1 1 1 1 1 0 0 0 0 0
0 0 0 0 0 0 0 0 0 0 0 0 0 0 0 0 0 0 0 0 0 0 0 0 0 0 0 0 0 0 0 1 1 1 1 1 1 1 1 0 0 0 0
0 0 0 0 0 0 0 0 0 0 0 0 0 0 0 0 0 0 0 0 0 0 0 0 0 0 0 0 0 0 1 1 1 1 1 1 1 1 1 1 0 0 0
0 0 0 0 0 0 0 0 0 0 0 0 0 0 0 0 0 0 0 0 0 0 0 0 0 0 0 0 0 1 1 1 1 1 1 1 1 1 1 1 0 0 0
0 0 0 0 0 0 0 0 0 0 0 0 0 0 0 0 0 0 0 0 0 0 0 0 0 0 0 0 0 1 1 1 1 1 1 1 1 1 1 1 0 0 0
0 0 0 0 0 0 0 0 0 0 0 0 0 0 0 0 0 0 0 0 0 0 0 0 0 0 0 0 0 0 1 1 1 1 1 1 0 0 0 0 0 0 0
0 0 0 0 0 0 0 0 0 0 0 0 0 0 0 0 0 0 0 0 0 0 0 0 0 0 0 0 0 0 0 1 1 1 0 0 0 0 0 0 0 0 0
0 0 0 0 0 0 0 0 0 0 0 0 0 0 0 0 0 0 0 0 0 0 0 0 0 0 0 0 0 0 0 0 0 0 0 0 0 0 0 0 0 0 0
0 0 0 0 0 0 0 0 0 0 0 0 0 0 0 0 0 0 0 0 0 0 0 0 0 0 0 0 0 0 0 0 0 0 0 0 0 0 0 0 0 0 0
0 0 0 0 0 0 0 0 0 0 0 0 0 0 0 0 0 0 0 0 0 0 0 0 0 0 0 0 0 0 0 0 0 0 0 0 0 0 0 0 0 0 0
0 0 0 0 0 0 0 0 0 0 0 0 0 0 0 0 0 0 0 0 0 0 0 0 0 0 0 0 0 0 0 0 0 0 0 0 0 0 0 0 0 0 0
0 0 0 0 0 0 0 0 0 0 0 0 0 0 0 0 0 0 0 0 0 0 0 0 0 0 0 0 0 0 0 0 0 0 0 0 0 0 0 0 0 0 0
0 0 0 0 0 0 0 0 0 0 0 0 0 0 0 0 0 0 0 0 0 0 0 0 0 0 0 0 0 0 0 0 0 0 0 0 0 0 0 0 0 0 0
0 0 0 0 0 0 0 0 0 0 0 0 0 0 0 0 0 0 0 0 0 0 0 0 0 0 0 0 0 0 0 0 0 0 0 0 0 0 0 0 0 0 0
0 0 0 0 0 0 0 0 0 0 0 0 0 0 0 0 0 0 0 0 0 0 0 0 0 0 0 0 0 0 0 0 0 0 0 0 0 0 0 0 0 0 0
Wind_Speed
5 5 5 6 6 7 7 7 7 7 6 4 4 4 4 4 4 3 4 4 4 4 3 3 3 4 4 5 5 4 4 3 2 2 1 1 1 1 1 2 2 4 4
5 6 6 6 6 7 7 7 7 8 7 5 4 3 4 4 4 4 4 4 4 4 3 3 3 4 4 5 5 4 3 3 4 4 3 1 1 1 1 1 3 3 3
5 6 6 6 7 7 8 7 8 8 7 7 4 4 3 3 3 4 4 4 4 4 4 4 3 3 4 4 6 6 6 4 3 3 4 4 4 1 0 1 2 3 3
5 6 6 7 8 7 7 7 7 8 7 7 5 5 4 4 5 4 4 5 4 4 4 4 4 3 3 4 5 6 5 5 4 3 2 2 3 3 2 0 1 2 3
5 6 6 7 7 7 7 7 7 7 7 7 6 6 5 4 5 5 5 5 4 4 3 3 3 3 3 4 4 4 5 5 5 4 3 2 1 2 3 2 1 1 1
5 6 6 6 6 7 6 7 7 7 7 7 7 6 7 7 7 7 6 5 4 3 3 3 3 3 3 4 4 4 5 5 6 5 4 4 4 4 3 3 2 2 1
5 6 7 7 7 8 7 7 7 8 8 7 7 7 7 7 6 6 5 5 4 3 4 3 3 3 3 4 4 4 5 6 6 6 5 4 4 3 4 4 3 2 1
5 6 6 6 6 7 7 7 7 7 8 8 7 7 7 5 4 5 5 4 4 4 4 4 3 3 3 3 3 3 4 4 5 6 5 4 4 3 4 4 4 3 1
6 6 6 6 6 6 6 6 7 7 7 8 8 7 7 6 6 6 5 4 4 4 5 4 4 3 2 2 2 2 3 4 5 5 6 5 4 4 4 3 4 5 4
5 6 5 5 5 5 5 5 5 6 6 7 6 6 7 7 6 5 6 5 5 5 5 5 4 3 2 1 1 1 2 3 3 3 4 4 3 4 4 4 4 4 4
6 5 5 5 5 5 4 5 5 6 6 6 6 7 7 7 7 6 6 6 5 5 5 5 4 3 2 1 0 1 2 3 3 3 4 4 4 4 3 4 4 4 4
5 5 5 5 5 5 5 5 5 5 5 6 6 6 7 7 7 7 7 6 6 5 5 4 4 4 3 2 1 0 1 2 2 3 4 4 4 4 4 4 4 4 4
5 4 4 4 5 4 4 4 4 5 5 5 6 6 7 7 8 8 7 7 7 6 6 5 5 4 4 3 2 1 1 1 1 2 3 4 5 4 3 4 4 4 4
5 5 5 5 4 4 4 4 4 4 4 4 5 6 6 7 7 7 7 7 7 6 6 6 5 5 4 3 2 1 1 1 1 1 2 3 4 5 5 4 4 4 4
6 5 5 5 4 4 3 3 3 3 3 4 5 5 6 6 6 7 7 7 7 7 6 6 6 5 4 3 3 2 2 2 2 2 1 2 3 5 4 4 4 5 5
7 6 5 5 4 4 3 3 3 3 2 3 4 5 5 6 6 6 6 7 7 7 7 7 7 6 5 7 7 4 3 3 3 2 2 1 2 4 5 5 6 6 7
7 6 6 5 5 4 3 3 3 2 2 3 4 4 5 5 6 6 6 7 7 7 7 7 7 7 7 9 9 8 4 3 3 2 2 2 2 3 3 5 5 4 6
7 6 5 4 4 3 2 2 1 1 2 2 3 4 4 5 5 6 6 6 5 5 6 7 7 7 8 11 10 8 5 4 4 3 3 3 2 2 4 5 5 4 4
7 6 5 4 3 3 2 1 1 1 1 2 3 3 3 4 5 5 5 5 4 5 5 5 7 7 8 11 10 8 4 4 5 4 4 3 2 5 8 7 7 6 5
5 5 4 3 3 3 3 2 2 1 2 3 3 3 2 3 3 4 4 3 3 4 4 5 6 6 7 11 11 9 3 4 4 4 4 5 4 5 7 6 6 6 4
6 5 4 4 4 3 4 3 3 4 4 2 2 2 2 2 2 2 2 3 3 4 5 5 5 6 7 9 11 9 4 3 3 3 3 3 5 6 7 6 5 6 6
5 5 5 5 4 4 5 4 5 5 3 2 2 2 2 2 1 1 2 2 3 4 4 4 5 4 5 7 8 10 8 5 3 3 2 3 6 7 8 6 8 10 8
6 5 6 5 4 5 6 6 6 4 3 2 2 2 2 1 1 1 1 2 2 2 3 3 3 4 4 5 10 10 9 8 4 3 5 7 8 8 6 8 9 7 5
6 5 5 6 6 6 7 8 5 4 4 4 3 2 2 2 1 1 1 1 1 1 2 2 2 3 3 4 4 4 4 5 4 3 5 8 10 7 7 6 5 4 4
5 5 6 7 8 6 7 7 6 6 5 5 4 3 3 3 2 2 2 2 2 3 2 2 1 1 2 4 5 3 2 2 1 2 3 3 3 3 3 3 3 3 3
5 5 7 8 8 7 7 7 7 7 7 5 5 4 3 3 3 2 3 4 5 5 5 5 4 3 4 5 4 4 4 3 2 3 2 2 2 2 2 2 2 2 2
Wind_Direction
310 326 329 330 332 331 331 329 330 328 331 327 325 319 314 309 303 292 289 289 284 276 258 251 234 218 215 211 203 192 182 184 155 129 89 8 357 203 202 189 181 187 184
325 327 325 327 328 325 326 328 330 328 330 323 308 287 287 289 283 288 294 287 286 280 269 250 238 225 219 215 205 191 177 184 170 151 133 171 312 290 214 183 193 194 176
308 314 320 320 325 326 325 328 326 327 327 325 319 314 309 302 308 311 307 298 289 276 265 252 240 229 219 217 210 197 188 185 183 172 156 165 199 208 260 212 196 181 182
301 307 316 320 321 319 322 325 327 329 330 333 334 333 326 316 305 303 297 301 292 284 270 255 242 232 225 222 216 202 193 179 180 186 187 161 155 157 172 267 209 192 193
295 304 308 309 312 316 324 328 332 332 335 340 339 335 328 312 309 310 311 312 309 298 287 266 250 241 228 221 215 204 198 190 185 178 170 154 135 144 151 176 186 196 212
299 305 306 313 315 319 328 334 337 334 337 340 341 342 335 328 327 328 326 322 315 308 306 290 261 248 236 222 214 212 206 199 194 188 178 167 165 173 161 159 164 182 212
295 300 308 316 318 322 328 332 337 334 335 339 342 340 334 330 327 325 324 326 324 319 319 314 285 259 238 227 214 211 211 201 198 197 195 188 186 162 155 147 145 146 165
290 292 293 301 308 315 322 330 335 331 334 340 337 335 337 334 328 328 326 323 316 310 315 313 296 282 255 230 214 212 211 202 201 203 197 195 196 178 169 158 146 142 164
289 291 295 302 307 312 317 325 331 331 335 340 338 338 341 342 338 334 336 333 328 324 332 329 321 309 288 246 212 208 209 202 205 204 200 200 195 188 186 170 163 158 171
286 292 298 301 306 307 312 326 333 328 331 340 343 344 341 342 340 342 346 342 337 336 336 338 332 322 316 285 218 202 202 195 200 197 194 196 191 186 182 178 179 170 161
273 280 290 297 305 313 322 331 335 337 340 342 341 345 344 344 347 351 348 343 339 341 344 340 337 336 339 332 260 186 176 188 194 191 188 193 181 175 179 172 173 172 157
267 275 286 301 312 319 324 329 331 334 335 338 344 346 345 348 354 354 353 350 348 348 347 344 349 352 352 350 13 181 173 175 187 188 180 183 173 172 174 175 177 174 164
275 287 294 299 302 308 315 321 326 328 333 342 348 349 350 352 352 351 352 355 356 356 356 357 1 357 353 356 9 19 131 147 176 183 180 177 166 168 167 167 169 170 167
269 277 283 287 289 293 302 311 319 326 333 344 349 349 347 347 347 349 355 359 359 359 358 358 358 356 355 8 16 45 89 106 96 140 157 159 166 170 167 168 171 162 152
262 267 268 274 283 288 294 301 313 324 332 344 347 341 340 347 352 356 357 359 3 3 359 6 6 2 3 16 26 47 69 86 80 75 93 138 166 171 170 168 168 160 154
251 260 265 268 271 272 278 290 302 314 329 340 337 337 346 353 355 354 356 2 5 4 9 13 10 11 14 21 30 48 61 73 82 73 65 98 138 153 157 161 160 160 161
241 247 253 254 258 258 252 262 277 303 334 334 334 339 346 351 350 353 1 4 3 8 11 10 10 12 12 25 36 41 55 61 66 72 71 78 88 107 115 111 116 128 143
232 238 241 247 249 240 232 245 272 309 327 331 330 335 345 347 349 357 360 358 0 7 8 8 8 14 19 25 32 40 49 53 48 49 60 73 75 107 120 112 99 87 90
218 223 224 222 226 227 214 190 243 305 319 317 318 327 340 346 351 356 353 354 3 9 9 9 13 17 11 18 31 41 42 48 40 34 39 57 83 110 116 113 108 97 80
212 216 211 203 217 219 179 178 222 254 271 280 294 312 327 340 345 344 344 349 1 4 5 15 15 15 12 20 31 37 46 48 39 30 29 45 75 104 114 116 119 114 104
209 203 194 205 219 196 172 195 223 242 248 260 290 312 321 320 325 341 349 354 6 13 14 13 8 12 13 16 26 31 41 48 47 36 23 27 67 90 100 104 112 124 119
207 194 195 218 219 188 181 208 232 238 231 232 267 295 311 322 348 357 353 3 12 18 11 8 4 3 4 12 21 33 43 51 64 46 24 38 71 88 92 95 109 113 107
208 198 199 219 222 200 192 212 233 216 201 213 246 270 293 315 335 343 342 355 10 15 3 5 0 348 351 3 20 30 39 43 53 48 59 67 73 79 82 94 102 102 101
210 201 198 217 230 215 208 219 222 195 191 212 235 247 261 279 294 291 279 288 317 337 346 350 341 334 341 353 358 4 18 29 39 42 54 65 68 67 69 75 73 74 94
212 198 204 219 232 222 218 220 209 189 199 215 225 231 235 244 256 256 244 240 239 214 215 239 251 296 318 314 332 348 354 358 23 57 46 45 49 57 55 58 61 68 83
215 212 219 227 235 226 226 222 202 190 196 213 221 219 218 223 227 248 280 252 241 250 234 222 215 239 255 294 328 345 354 7 84 85 74 68 73 90 97 100 82 72 92